Showing default

AFR-1, 56964

Orbit data source: Space-Track

AFR-1, 56964 is a payload satellite owned by Azista BST (IN) in SSO that was launched on Mon, 12 Jun 2023 UTC via an FALCON 9 launch vehicle from the Air Force Western Test Range (AFWTR). Payload-class satellites include a variety of spacecraft equipped with specific instruments for various scientific and technological missions. These include communications satellites like Starlink; space stations such as the ISS; scientific satellites like the Hubble; Earth observation satellites from companies like Planet Labs, Umbra, and HawkEye 360; GPS; miniature CubeSats for education and research; and military/defense satellites.

Loading next visibility...
Identifier
56964, 2023-084AJ
Orbit
SSO
Country
Flag of ININ / IND
Related business
Manufacturer
Azista BST
Mission
Operational Commercial Imaging
Bus & Motor
AFR, Unknown motor
Mass
80 kg wet, 80 kg dry
Launch date (UTC)
2023-06-12 (3 years ago)
Launch vehicle
FALCON 9
Launch site
Air Force Western Test Range (AFWTR)
Object type
Payload
Rocket body
Debris
Shape & HBR
Box + 1 Pan, 0.5 m
Radar Cross Section
1.100 m², Medium (>0.1 m² and < 1m²)

Expand to show TLE details & history
Last TLE update: 8 hours ago

TLE from 8 hours ago
0 AFR-1
1 56964U 23084AJ  26111.92460250  .00004480  00000-0  16646-3 0  9998
2 56964  97.6188 247.3121 0010929 169.6290 190.5176 15.28037481158636
Epoch: 2026-04-21T22:11Z
TLE epoch observation values (Epoch: 2026-04-21T22:11:25.655Z)
Latitude
-0.00003°
Longitude
64.4618°
Altitude
492.148 km
Speed
7.615 km/s
True Right ascension
16h 29m 14s
True Declination
0° 00' 00"
Sunlit
Object was in full shadow at epoch
Visualization orbit readout
Latitude
Unknown
Longitude
Unknown
Altitude
Unknown
Speed
Unknown
Apparent Right ascension
Unknown
Apparent Declination
Unknown
Sunlit
N/A
Visualization observer readout
Local Sidereal Time
13:15:21
Azimuth
Unknown
Elevation
Unknown
Doppler factor
Unknown
Orbital elements
Apogee altitude
486.138 km
Perigee altitude
471.15 km
Semi-major axis
6,856.781 km
Eccentricity
0.00109
Inclination
97.6188°
RAAN
247.3121°
Arg. of periapsis
169.629°
True anomaly
190.49477°
Mean anomaly
190.5176°
Eccentric anomaly
190.50618°
Mean motion
3.82263 °/min
Orbital period
94.18 mins
BSTAR
0.00016646
Loading maneuver chart data...
Computing Atmospheric mass density...

Documentation

Showing up to 5 results
|